Location: *
(49.3500°N, 12.6000°E)
Time: 22:38:59
(UTC+00:00)

STARLINK-58 - Pass Details

Date: 18 October 2019
Orbit: 548 x 551 km, 53.0° (Epoch: 22 November)

Event Time Altitude Azimuth Distance (km) Brightness Sun altitude
Rises 17:29:14 0° 262° (W) 2,715 9.1 -12.9°
Reaches altitude 10° 17:31:30 10° 266° (W) 1,824 7.8 -13.3°
Maximum altitude 17:35:36 59° 347° (NNW) 639 4.0 -14.0°
Enters shadow 17:38:13 21° 62° (ENE) 1,266 5.0 -14.4°
